Theta_e
320 316 314 309 296 293 289 292 293 294 293 296 299 298 298 298 299 294 310 322 326 330 334 339 345 346 347 347 347 347 347 345 344 343 343 343 341 339 338 337 339 340 341 342 340 338 337 337 337
314 315 310 302 293 286 288 293 293 295 296 298 298 297 297 298 304 306 313 320 326 329 331 334 342 345 345 346 346 346 346 344 343 341 339 338 336 336 335 334 334 336 337 338 335 332 331 330 331
313 311 305 297 290 288 289 292 293 295 295 295 297 297 297 298 302 306 313 322 324 324 327 331 340 342 342 341 341 341 340 338 339 336 337 335 334 332 329 328 327 331 331 328 326 325 323 323 323
308 304 298 294 291 294 293 294 294 294 295 297 295 297 297 303 305 308 311 320 319 320 323 331 338 340 339 339 340 338 338 336 335 334 333 332 329 326 324 324 324 325 324 323 322 320 320 320 319
303 299 291 289 289 292 293 294 296 295 294 295 296 295 296 300 303 307 315 319 317 317 320 326 337 338 337 337 338 337 336 335 333 331 329 327 324 323 322 321 321 321 321 320 319 319 319 319 319
298 296 289 287 289 293 295 295 296 294 294 294 294 296 296 298 303 306 313 313 315 315 318 322 330 333 334 335 335 335 333 331 328 326 324 323 321 321 320 319 319 319 319 319 318 318 317 317 315
297 294 289 287 291 293 295 295 294 294 293 296 295 293 296 296 302 308 309 310 312 314 315 316 320 324 329 331 331 332 329 327 324 322 321 320 319 318 318 317 318 318 318 318 316 314 313 313 313
298 294 289 288 289 292 295 294 294 295 296 296 299 295 295 296 301 304 306 307 308 309 311 311 313 316 316 318 325 326 326 324 321 321 319 318 315 315 315 317 317 316 316 315 312 311 309 310 309
297 289 286 288 290 293 294 293 295 295 295 295 298 295 296 298 298 300 300 302 304 307 307 307 308 309 309 310 315 320 322 322 320 318 317 312 301 303 304 312 314 313 312 312 309 307 305 303 304
296 287 289 292 293 292 294 294 294 296 293 293 296 296 297 297 298 299 297 301 302 303 304 305 304 304 304 308 308 307 308 307 305 304 302 297 296 298 302 307 309 308 307 308 306 303 301 296 292
296 292 294 297 298 296 295 293 295 293 293 294 296 297 296 295 295 298 299 303 303 305 304 304 303 301 301 302 302 301 300 299 298 298 296 294 296 297 295 294 292 291 295 290 292 291 290 290 290
293 297 296 298 298 296 294 295 293 294 300 298 298 296 295 295 295 296 296 297 297 299 302 302 302 300 298 298 300 298 297 295 295 294 295 293 293 291 290 290 289 288 288 288 288 288 289 289 290
295 296 298 298 298 297 297 295 295 295 299 297 298 296 295 296 297 297 298 297 295 297 299 300 300 300 298 296 297 296 295 296 294 293 294 293 291 290 289 289 288 287 287 287 287 287 287 288 289
294 296 296 296 297 297 296 296 294 299 296 297 296 296 295 295 297 295 295 296 294 295 296 298 299 299 298 296 297 296 295 294 293 292 293 292 291 289 289 288 287 286 286 286 286 286 286 286 287
295 293 293 293 294 295 295 293 292 300 295 296 295 296 295 295 296 296 298 297 297 296 295 295 297 298 297 295 295 295 294 295 293 292 292 292 290 289 288 287 286 286 286 286 286 286 285 285 286
290 289 286 291 292 293 294 288 296 297 295 296 296 294 294 296 296 298 299 298 298 296 294 295 297 296 296 296 295 294 294 294 293 291 290 291 290 289 287 286 286 286 285 285 285 284 284 284 284
284 282 284 288 293 292 291 289 295 295 293 294 294 295 295 295 295 296 298 299 298 297 296 294 295 295 295 295 294 294 293 293 293 290 289 289 289 288 287 286 285 285 285 284 285 283 283 282 283
283 282 284 284 289 289 288 289 294 296 293 293 294 295 297 297 298 300 297 298 298 297 297 295 295 295 295 295 293 291 291 292 291 290 289 288 288 287 286 285 285 285 284 284 283 283 283 283 282
285 284 284 288 291 288 289 290 293 296 296 295 293 296 297 298 301 300 296 296 295 294 295 295 293 294 294 292 290 291 291 290 290 290 289 288 287 287 285 284 284 284 283 283 283 283 282 282 281
288 287 286 290 292 287 288 288 291 292 294 297 297 297 297 297 298 299 293 293 294 295 295 294 294 293 294 294 294 292 293 289 291 289 288 287 287 286 285 284 283 283 282 282 282 282 281 281 281
286 285 287 286 288 287 285 286 288 290 293 295 296 297 298 298 298 299 293 292 292 292 293 294 294 293 294 294 292 286 285 284 284 285 287 287 286 286 285 284 283 283 282 281 281 281 281 280 280
286 289 289 287 283 281 285 280 284 288 290 291 294 295 295 296 297 297 294 291 291 293 292 293 293 292 293 293 291 290 290 288 288 289 288 287 286 285 284 284 283 282 282 281 281 281 280 280 279
288 288 286 283 281 281 281 278 283 286 287 289 293 294 296 295 295 296 293 293 293 291 290 291 291 291 292 292 291 291 290 291 287 285 284 285 284 284 284 283 282 281 281 281 281 280 280 280 279
288 286 284 281 281 277 283 282 284 284 288 288 291 293 294 296 295 293 291 291 290 288 288 289 290 290 291 291 290 290 290 286 285 284 285 285 284 283 283 283 281 281 281 280 280 280 280 280 279
287 283 277 275 274 277 282 280 287 290 289 290 294 293 292 292 291 292 290 290 288 286 287 288 289 289 289 289 289 289 289 287 286 285 286 284 283 283 282 282 281 281 281 280 280 280 279 279 279
284 284 279 271 277 282 281 278 288 290 291 290 289 291 290 291 290 290 291 289 288 287 286 288 287 288 288 288 289 289 289 288 287 285 286 285 285 285 283 282 281 280 280 280 280 279 279 278 279
282 281 286 281 276 275 283 285 291 288 288 287 289 289 290 288 289 290 289 289 288 286 285 286 287 288 288 288 288 288 288 287 286 284 285 285 285 284 282 282 281 280 280 279 279 278 278 277 278
286 286 280 278 274 273 279 281 284 288 291 290 288 289 291 289 290 291 290 289 288 287 286 286 286 288 288 287 288 288 287 287 286 283 284 284 284 283 281 281 281 280 279 279 278 277 277 277 277
282 282 282 282 281 279 278 282 293 291 289 288 288 289 290 291 292 291 292 291 289 288 287 286 286 287 287 287 287 287 286 286 285 283 284 284 283 282 281 281 280 280 278 278 277 277 276 276 276
286 285 285 281 280 282 282 283 295 295 292 288 292 296 295 291 291 291 292 293 292 290 288 287 287 287 288 288 287 286 286 285 284 284 283 283 282 282 281 281 280 280 279 277 277 276 276 275 275
Wind_Speed
3 3 2 5 5 5 4 7 3 2 2 2 3 5 8 4 7 7 3 5 6 10 7 8 12 12 14 14 14 13 13 12 10 10 11 10 10 10 9 8 8 9 10 11 11 11 10 10 10
2 1 5 3 5 2 6 5 6 5 2 5 3 2 1 6 2 2 4 7 8 8 6 6 11 13 12 14 14 13 14 14 12 10 8 9 8 9 9 9 8 7 8 10 10 9 9 9 9
1 4 4 5 3 5 5 5 6 2 2 1 2 3 2 4 2 5 6 11 7 7 6 6 10 14 14 13 12 12 11 11 11 10 10 10 10 10 9 9 8 9 10 10 10 9 9 10 10
2 5 5 4 6 8 8 6 5 2 1 4 2 4 3 3 6 7 8 10 9 7 6 8 12 14 13 13 14 13 13 12 12 12 12 13 12 11 10 10 9 10 10 9 10 9 10 11 11
5 3 2 1 6 7 6 5 7 6 2 3 4 5 5 3 1 7 11 11 11 7 6 6 11 13 13 14 14 14 15 14 15 15 14 13 12 12 12 11 11 11 10 10 10 10 11 12 12
4 3 3 4 6 6 7 5 7 4 2 2 3 1 6 2 6 7 8 8 7 9 7 6 9 11 12 14 14 15 15 15 14 13 12 13 12 12 12 11 12 11 11 11 11 11 11 11 11
6 4 5 4 6 6 5 7 4 5 3 7 2 4 4 3 7 7 8 6 6 6 7 6 6 7 10 11 13 14 16 16 15 14 13 12 12 12 12 11 12 12 11 11 11 11 11 12 11
5 4 2 5 3 6 2 3 1 6 8 1 7 7 7 3 8 7 6 6 6 6 6 6 5 6 5 5 10 11 13 13 14 14 13 12 11 11 12 9 11 11 11 11 11 11 11 12 11
4 3 3 6 5 5 1 3 2 1 2 4 7 4 1 5 10 7 4 3 4 6 7 7 7 6 6 4 5 8 10 11 12 10 11 9 4 5 7 7 12 12 11 11 11 11 11 10 10
5 3 9 6 4 4 2 5 4 1 4 5 6 3 4 7 10 12 10 13 10 11 9 7 7 7 6 4 5 5 5 4 4 5 6 4 4 4 5 7 11 11 11 11 11 10 9 7 4
5 7 6 7 7 4 3 4 5 4 8 10 11 10 8 9 10 13 14 14 19 12 8 11 9 7 8 5 4 3 3 3 3 6 5 5 4 3 3 3 3 4 7 3 5 4 3 4 3
3 9 6 5 3 2 4 3 5 9 22 6 14 4 8 12 15 17 16 16 13 14 14 11 10 10 8 5 5 5 4 4 4 5 7 5 3 4 4 3 4 4 3 5 3 2 3 4 4
5 5 7 6 6 7 7 11 7 12 20 9 9 7 10 12 16 14 14 11 10 14 14 15 14 13 11 9 6 6 6 6 5 5 6 5 5 5 4 4 3 3 3 3 3 3 3 4 4
2 5 8 5 6 6 6 12 5 18 5 9 8 12 11 12 17 8 10 15 15 15 17 15 16 15 13 12 11 9 7 7 6 5 6 7 5 5 4 4 4 3 3 3 4 3 2 3 2
4 8 9 7 5 10 7 13 13 25 2 12 10 10 10 16 10 20 21 19 19 17 12 18 18 16 16 16 12 9 9 8 7 7 7 7 7 6 6 5 4 4 4 5 4 3 2 3 3
4 1 5 1 6 3 9 15 19 12 6 14 13 11 10 13 17 20 16 18 15 13 18 17 16 18 17 16 12 9 8 8 7 6 6 8 8 8 6 5 5 4 4 4 4 2 2 2 3
3 6 8 13 13 5 8 10 14 4 7 12 11 12 12 13 12 14 17 17 17 19 17 17 19 20 20 15 11 10 10 9 7 6 7 8 8 8 7 5 5 5 4 3 3 2 2 2 3
9 6 6 7 6 4 6 15 13 14 7 13 14 14 18 19 26 18 13 16 15 16 17 16 16 17 17 11 8 5 6 6 6 8 8 10 8 8 7 5 6 5 4 4 2 3 2 2 1
4 7 8 10 8 3 10 15 17 18 17 17 16 20 23 22 27 13 11 12 11 11 15 17 18 17 15 11 11 9 12 9 7 7 10 10 8 9 8 5 6 5 5 5 5 3 3 3 3
9 15 17 17 18 5 17 23 17 13 17 25 25 22 22 21 19 20 7 9 13 16 16 16 18 17 17 13 12 6 10 5 7 6 7 10 10 9 8 8 7 6 5 6 5 4 3 2 4
11 8 18 17 6 6 10 19 16 13 16 22 25 21 20 21 20 21 8 11 9 12 17 19 20 20 19 16 9 4 6 4 3 5 6 8 10 10 8 8 7 7 5 6 5 5 6 4 1
19 14 14 11 3 9 3 23 6 9 15 11 19 18 15 17 17 15 9 8 11 15 9 12 15 17 16 17 15 16 11 10 8 10 8 8 10 10 8 8 7 7 4 5 4 4 3 5 5
12 3 6 2 3 5 3 6 2 5 7 15 14 15 17 14 13 17 8 10 12 8 11 11 12 14 15 17 16 15 13 10 6 5 11 10 9 10 11 11 9 7 4 5 6 5 5 2 4
2 3 2 4 3 10 12 10 7 6 8 5 7 11 13 15 13 8 6 6 5 6 8 11 15 15 15 16 17 19 18 9 8 9 10 9 8 8 10 11 10 9 8 7 6 5 7 5 3
4 5 5 5 1 13 7 6 15 13 8 9 14 11 11 11 10 11 7 7 5 7 8 10 13 15 15 17 16 17 16 15 17 15 13 13 10 8 12 12 11 8 9 8 8 7 6 6 5
8 11 8 8 11 19 8 13 19 9 8 5 5 8 9 13 9 10 9 4 4 6 7 8 11 10 12 15 17 15 14 10 10 12 10 11 12 12 13 13 11 11 11 9 8 5 5 6 5
4 7 7 4 1 2 14 19 17 6 7 2 5 7 11 10 9 11 6 2 6 5 6 8 8 9 12 15 13 15 14 14 13 10 9 9 9 10 14 15 14 12 11 11 10 7 8 7 6
7 1 2 2 5 11 9 15 18 17 17 9 6 6 9 9 10 7 6 5 6 8 7 9 9 14 12 12 14 13 14 15 13 11 14 13 11 12 14 15 15 14 12 12 11 7 7 8 6
1 4 5 1 6 16 18 13 27 20 8 9 7 8 6 8 10 7 6 6 5 5 8 10 12 15 14 15 16 14 14 14 13 13 14 15 13 14 15 16 15 15 15 13 12 10 10 10 8
2 6 8 11 13 12 17 17 23 29 13 10 18 18 15 8 8 8 7 8 8 9 9 13 11 12 15 14 13 16 13 13 15 15 15 15 16 15 16 16 16 16 16 15 15 13 12 12 12
Wind_Direction
5 348 79 40 47 60 267 261 249 245 243 196 140 147 193 173 168 209 332 195 142 151 166 160 167 158 157 154 153 153 151 145 135 124 122 108 105 102 103 98 60 62 72 69 71 63 52 40 37
11 85 43 81 87 41 271 257 236 224 232 118 122 89 252 237 193 248 128 201 162 152 154 156 162 167 161 155 151 150 149 142 134 117 117 109 114 106 100 103 97 98 89 79 72 61 55 50 40
8 41 84 95 120 193 225 232 238 255 156 204 210 201 198 235 214 203 222 154 148 151 153 160 168 177 168 162 159 157 151 156 134 131 150 141 129 119 112 103 96 95 91 88 78 65 55 48 42
71 12 34 96 233 252 214 253 205 180 272 232 209 251 281 215 171 193 149 145 143 152 152 169 177 185 180 176 164 160 155 166 157 158 143 139 136 131 123 110 104 97 90 83 77 71 66 60 53
36 57 62 274 256 265 247 246 168 183 223 232 169 259 248 229 351 149 151 152 154 156 161 165 181 179 178 176 170 169 167 161 163 154 151 146 142 136 131 124 116 107 99 92 86 79 72 67 57
41 94 62 247 243 256 276 178 155 201 215 276 219 179 250 350 151 178 148 152 152 156 162 167 174 173 176 174 170 170 160 162 160 155 155 147 144 141 134 127 121 112 108 100 93 84 76 72 61
120 96 219 243 259 288 248 140 186 190 201 243 179 187 265 267 207 147 139 128 140 153 157 168 165 171 177 173 172 170 168 167 164 161 158 151 143 140 128 123 122 113 108 102 93 87 80 73 64
105 96 245 248 239 271 293 205 331 162 246 80 171 232 259 245 145 111 113 141 156 168 175 174 169 166 169 169 171 174 168 168 166 163 153 146 144 141 131 119 119 111 106 100 91 81 76 74 67
125 61 251 250 182 246 199 223 198 160 236 230 212 203 290 119 118 107 113 171 186 202 191 181 176 172 165 166 173 168 165 168 164 151 148 127 120 124 114 130 121 116 109 100 88 81 74 71 61
116 146 228 217 221 232 259 192 249 281 241 248 282 228 97 137 162 169 181 194 206 205 202 187 178 176 167 163 163 151 152 148 142 135 128 126 132 134 122 111 118 111 107 104 99 90 77 65 49
183 212 220 255 230 253 246 251 214 196 265 209 214 234 174 180 190 195 202 199 205 201 197 196 185 175 168 172 161 155 148 148 152 160 152 150 148 126 119 110 122 119 108 88 85 76 73 75 68
222 247 229 262 226 259 251 277 250 189 250 195 225 201 169 191 202 205 207 208 193 192 197 190 186 181 181 164 175 168 164 167 176 178 163 153 154 157 156 150 147 134 135 118 115 104 98 74 75
227 249 251 255 277 262 307 254 253 255 254 245 249 212 210 209 216 220 221 219 199 203 196 195 184 188 185 180 173 174 181 182 179 178 173 159 164 169 163 165 158 141 136 130 117 102 77 52 42
274 268 270 269 226 247 229 279 135 268 255 253 241 243 230 219 221 221 219 219 206 203 203 188 192 190 181 189 187 187 180 181 178 178 180 172 166 167 164 167 165 156 144 134 127 119 102 73 43
307 317 311 208 222 228 167 293 225 250 212 280 260 253 245 232 205 222 222 220 211 211 194 193 191 187 187 190 186 184 185 179 184 184 180 173 170 171 164 167 171 173 157 131 118 94 68 44 7
344 342 324 307 136 232 154 258 267 251 229 265 275 270 255 251 226 234 228 222 208 200 197 191 191 190 189 190 185 184 182 183 185 180 172 175 174 169 167 165 188 166 151 139 118 103 82 46 18
301 239 223 306 197 150 185 245 265 265 189 269 270 271 274 274 259 234 228 216 204 202 197 194 192 191 191 187 181 181 178 184 183 171 178 181 176 173 168 171 175 162 146 143 144 94 127 53 354
226 225 249 242 288 166 229 250 277 292 204 243 263 269 270 268 263 250 222 211 205 200 198 196 192 191 185 176 167 155 171 184 174 186 187 179 181 170 161 169 167 156 150 153 144 138 84 115 342
186 217 235 253 253 243 243 254 261 267 281 262 256 260 261 263 267 260 222 198 194 190 192 192 185 186 174 175 173 182 193 190 191 187 181 180 175 173 167 168 160 165 170 170 160 134 118 29 359
239 260 264 269 264 226 266 266 267 253 250 260 263 260 259 262 270 269 234 197 192 198 197 190 191 182 187 184 189 187 182 187 192 177 178 181 176 172 170 171 175 173 157 167 167 147 119 80 11
229 225 253 261 304 239 283 271 243 251 251 255 266 257 266 264 268 271 228 212 197 197 192 192 188 183 184 180 158 87 86 67 123 183 186 188 177 174 171 173 169 173 171 177 168 159 151 142 13
266 224 257 264 354 271 9 297 198 241 249 237 249 266 251 260 261 263 241 220 206 218 192 189 185 180 182 172 170 177 187 185 195 193 190 182 177 176 169 168 168 174 177 178 167 165 152 132 152
245 215 229 182 216 327 213 274 150 134 250 254 262 256 260 248 251 263 242 219 217 180 173 171 173 179 182 181 183 184 188 189 161 158 164 176 179 178 176 173 167 169 176 170 168 159 156 159 144
108 79 75 62 120 269 197 205 343 163 215 269 269 270 264 269 268 267 255 244 232 166 160 164 169 177 181 184 188 194 194 170 160 163 174 181 183 184 184 176 172 165 168 174 175 165 167 175 176
132 79 312 318 54 242 146 205 255 288 233 221 265 278 313 301 299 306 269 249 186 179 170 161 176 186 179 184 194 196 194 184 183 177 180 175 179 191 191 177 177 182 177 172 166 166 173 172 174
191 165 178 213 266 280 123 256 276 227 265 279 322 289 301 318 311 268 285 280 256 175 177 179 175 186 191 194 194 194 196 193 193 186 185 186 187 188 177 184 184 173 170 173 169 168 165 165 171
177 192 226 265 178 270 268 274 285 238 265 32 347 349 321 297 318 306 316 240 185 178 188 186 187 190 199 212 199 201 195 192 190 180 184 189 182 176 171 181 180 178 176 171 170 174 175 164 165
179 112 66 330 221 242 250 270 261 278 280 270 267 313 294 2 322 344 321 260 209 192 189 182 192 208 195 206 217 212 204 195 189 170 187 185 181 170 171 180 182 177 177 171 172 170 167 171 173
148 242 213 186 210 257 261 249 269 273 253 236 272 259 295 304 288 305 301 275 247 199 198 202 209 212 208 203 209 205 202 203 191 186 189 188 174 177 175 181 180 180 177 174 176 177 168 171 168
156 240 240 237 250 241 258 251 271 279 270 244 271 290 303 307 292 269 266 251 226 228 216 217 218 215 218 217 212 209 201 194 197 201 195 186 182 182 180 176 181 182 182 177 179 177 176 175 178